STARLINK-34839

Last updated on Mon Oct 20 2025 00:02:06 GMT+0000 (Coordinated Universal Time)

1 65703U 25212AD 25292.29082612 -.00409240 00000+0 -79574-2 0 9997 2 65703 53.1583 282.5296 0000941 54.3170 305.7927 15.48531590 5599
UTC large
Height (km)
Speed (km/s)
/
Latitude / Longitude
Inclination (degrees)
Orbital Period (minutes)
Azimuth
Elevation
Range (km)
Doppler Factor

Next 0 passes for location: London (51.5072 / 0.1276)

Sorry there are no passes over London.